Pagina principale
METAR-TAF:

METAR-TAF

Aeroporti :

Mahshahr, Iran

latitudine: 30-33-23N, longitudine: 049-09-07E, altezza: 2 m

Osservazione

Il bollettino è stato emesso 46 minuti fa, alle 04:00 UTC
Vento calmo
Temperature 35°C
Umidità 23%
Pressione 998 hPa
Visibilità 10 km o più
nessuna nube inferiore a 1500 m e nessun cumulonembo

METAR: OIAM 150400Z 00000KT CAVOK 35/11 Q0998

Ora: 09:16 (04:46 UTC)


TAF: mancante

Osservazioni e previsioni meteorologiche di più di 4000 aeroporti (messaggi METAR e TAF).

Le stazioni disponibili sono rappresentate dai dischi gialli e rossi sulla carta.

Puntare il mouse per vedere il nome della stazione.

Clicca sopra per visualizzare le osservazioni e previsioni meteorologiche.

Per cambiare la mappa : fare clic sui pulsanti verdi con una croce nera per ingrandire, il pulsante verde con un trattino per diminuire, o sulla freccia verde per le mappe adiacenti.


METAR-TAF: